This is the latest recevied weather packets stored in our database for station/object VE9LJW. If no packets are shown the sender has not sent any weather packets the latest 10 day(s).
| Time | Temp. | Humidity | Pressure | Rain* | Wind** | Luminosity | Snow |
|---|---|---|---|---|---|---|---|
| 1777606849 | 12.78° C | 99% | 1004.9 hPa | 4.83 mm | - | 0 W/m² | - |
| 1777606545 | 12.22° C | 99% | 1005.2 hPa | 3.05 mm | - | 0 W/m² | - |
| 1777606240 | 12.78° C | 99% | 1005.4 hPa | 2.29 mm | - | 0 W/m² | - |
| 1777605936 | 12.22° C | 99% | 1005.3 hPa | 3.05 mm | - | 0 W/m² | - |
| 1777605632 | 12.22° C | 99% | 1005.2 hPa | 3.05 mm | - | 0 W/m² | - |
| 1777605331 | 12.22° C | 99% | 1005.4 hPa | 3.56 mm | - | 0 W/m² | - |
| 1777605028 | 12.78° C | 99% | 1005.5 hPa | 2.29 mm | - | 0 W/m² | - |
| 1777604724 | 12.78° C | 99% | 1005.5 hPa | 1.27 mm | - | 0 W/m² | - |
| 1777604421 | 12.78° C | 99% | 1005.4 hPa | 1.27 mm | - | 0 W/m² | - |
| 1777604120 | 12.22° C | 99% | 1005.6 hPa | 1.27 mm | - | 0 W/m² | - |
| 1777603817 | 12.22° C | 99% | 1005.6 hPa | 0.51 mm | - | 0 W/m² | - |
| 1777603514 | 12.22° C | 99% | 1005.6 hPa | 0.51 mm | - | 0 W/m² | - |
| 1777603209 | 12.22° C | 99% | 1005.9 hPa | 1.27 mm | - | 0 W/m² | - |
| 1777602905 | 12.22° C | 99% | 1005.9 hPa | 0.51 mm | - | 0 W/m² | - |
| 1777602601 | 12.22° C | 99% | 1005.9 hPa | 2.29 mm | - | 0 W/m² | - |
| 1777602296 | 12.22° C | 99% | 1005.9 hPa | 1.78 mm | - | 0 W/m² | - |
| 1777601991 | 12.22° C | 99% | 1005.9 hPa | 4.83 mm | - | 0 W/m² | - |
| 1777601687 | 12.22° C | 99% | 1006.1 hPa | 5.33 mm | - | 0 W/m² | - |
| 1777601383 | 12.22° C | 99% | 1006 hPa | 3.56 mm | - | 0 W/m² | - |
| 1777601079 | 12.22° C | 99% | 1006 hPa | 4.32 mm | - | 0 W/m² | - |
| 1777600776 | 12.22° C | 99% | 1005.7 hPa | 6.1 mm | - | 0 W/m² | - |
| 1777600472 | 12.22° C | 99% | 1005.9 hPa | 5.33 mm | - | 0 W/m² | - |
| 1777600168 | 12.22° C | 99% | 1005.8 hPa | 6.1 mm | - | 0 W/m² | - |
| 1777599863 | 12.22° C | 99% | 1005.8 hPa | 7.11 mm | - | 0 W/m² | - |
| 1777599560 | 12.22° C | 99% | 1006 hPa | 4.32 mm | - | 0 W/m² | - |
* Rain latest hour (hover to see other rain measurements)
** Current wind speed in m/s (hover to see current wind gust speed)